TimeEDT,TemperatureF,Dew PointF,Humidity,Sea Level PressureIn,VisibilityMPH,Wind Direction,Wind SpeedMPH,Gust SpeedMPH,PrecipitationIn,Events,Conditions,WindDirDegrees,DateUTC
12:53 AM,75.0,71.1,87,29.98,10.0,Calm,Calm,-,N/A,,Clear,0,2013-10-06 04:53:00
1:53 AM,75.0,71.1,87,29.96,10.0,Calm,Calm,-,N/A,,Clear,0,2013-10-06 05:53:00
2:53 AM,73.0,71.1,93,29.94,10.0,Calm,Calm,-,N/A,,Clear,0,2013-10-06 06:53:00
3:53 AM,73.0,72.0,96,29.92,10.0,Calm,Calm,-,N/A,,Partly Cloudy,0,2013-10-06 07:53:00
4:53 AM,73.9,72.0,93,29.91,10.0,Calm,Calm,-,N/A,,Clear,0,2013-10-06 08:53:00
5:53 AM,73.0,72.0,96,29.92,10.0,Calm,Calm,-,N/A,,Clear,0,2013-10-06 09:53:00
6:53 AM,73.9,72.0,93,29.93,10.0,Calm,Calm,-,N/A,,Clear,0,2013-10-06 10:53:00
7:53 AM,73.0,72.0,96,29.94,10.0,Calm,Calm,-,N/A,,Clear,0,2013-10-06 11:53:00
8:53 AM,80.1,73.9,81,29.96,10.0,Calm,Calm,-,N/A,,Clear,0,2013-10-06 12:53:00
9:53 AM,82.9,71.1,67,29.97,10.0,ESE,4.6,-,N/A,,Clear,120,2013-10-06 13:53:00
10:53 AM,84.9,70.0,61,29.97,10.0,Calm,Calm,-,N/A,,Partly Cloudy,0,2013-10-06 14:53:00
11:53 AM,88.0,68.0,51,29.96,10.0,Variable,3.5,-,N/A,,Clear,0,2013-10-06 15:53:00
12:53 PM,89.1,70.0,53,29.94,10.0,SE,4.6,-,N/A,,Clear,130,2013-10-06 16:53:00
1:53 PM,89.1,66.9,48,29.92,10.0,Variable,4.6,-,N/A,,Mostly Cloudy,0,2013-10-06 17:53:00
2:53 PM,91.0,68.0,47,29.90,10.0,Variable,3.5,-,N/A,,Mostly Cloudy,0,2013-10-06 18:53:00
3:53 PM,86.0,69.1,57,29.88,10.0,ESE,8.1,-,N/A,,Mostly Cloudy,110,2013-10-06 19:53:00
4:53 PM,86.0,69.1,57,29.88,10.0,SE,6.9,-,N/A,,Scattered Clouds,140,2013-10-06 20:53:00
5:53 PM,86.0,68.0,55,29.89,10.0,SSE,6.9,-,N/A,,Partly Cloudy,150,2013-10-06 21:53:00
6:53 PM,82.9,69.1,63,29.90,10.0,SSE,6.9,-,N/A,,Partly Cloudy,160,2013-10-06 22:53:00
7:53 PM,81.0,70.0,69,29.91,10.0,SSE,4.6,-,N/A,,Clear,160,2013-10-06 23:53:00
8:53 PM,80.1,71.1,74,29.93,10.0,South,5.8,-,N/A,,Partly Cloudy,180,2013-10-07 00:53:00
9:53 PM,78.1,70.0,76,29.94,10.0,SSW,4.6,-,N/A,,Mostly Cloudy,200,2013-10-07 01:53:00
10:53 PM,78.1,69.1,74,29.94,10.0,Calm,Calm,-,N/A,,Mostly Cloudy,0,2013-10-07 02:53:00
11:53 PM,78.1,69.1,74,29.92,10.0,Calm,Calm,-,N/A,,Scattered Clouds,0,2013-10-07 03:53:00